sat.trackr.live / text

‹ back to catalog

STARLINK-32291

NORAD 62442 · 2024-251L

PAYLOAD ACTIVE UNKNOWN

§ Identity

Operator
Country
US
Launch date
2024-12-29
Launch site
AFWTR
Launch vehicle
Mass (kg)
RCS (m²)

Purposes: comms

External: N2YO · Heavens-Above · Gunter

§ Orbital elements

Epoch: 2026-09-21T20:26:51.506592Z

Period
93.85 min
Inclination
53.1597°
Eccentricity
0.0001318
Mean motion
15.34382808 rev/d
Perigee alt
461.9 km
Apogee alt
463.7 km
Semi-major
6,840.9 km
B*
3.2794e-4
RAAN
143.3078°
Arg perigee
103.3941°
Mean anomaly
256.7209°
Rev number
9,768

§ Raw data

STARLINK-322911 62442U 24251L   26264.85198503  .00010714  00000+0  32794-3 0  99912 62442  53.1597 143.3078 0001318 103.3941 256.7209 15.34382808 97683

JSON: /api/v1/satellites/62442 · /tle

For live sub-satellite position, see the globe view (requires WebGL).

§ Visibility from observer

Set your observer location to see the next 7 days of passes ≥ 10°. The values pass through the URL so the page stays shareable.

No JS? Fill the form by hand. The geolocation button needs JavaScript.